Regional Weather Roundup
Issued by NWS Sterling, VA

Home | Current Version | Previous Version | Text Only | Print | Product List | Glossary Off
Versions: 1 2 3 4 5 6 7 8 9 10 11 12 13 14 15 16 17 18 19 20 21 22 23 24 25 26 27 28 29 30 31 32 33 34 35 36 37 38 39 40 41 42 43 44 45 46 47 48 49 50

000
ASUS41 KLWX 101010
RWRLWX

REGIONAL WEATHER ROUNDUP
NATIONAL WEATHER SERVICE BALTIMORE MD/WASHINGTON DC
500 AM EST WED FEB 10 2016

Note: "FAIR" indicates few or no clouds below 12,000 feet
with no significant weather and/or obstructions to visibility.
 TC=TEMPERATURE CELSIUS

 * =Non NWS site. Station does not report precipitation (e.g. rain,
    snow, etc.), thunder, or fog.

DCZ001-MDZ009-015-VAZ040>042-051-053>054-101100-
WASHINGTON METRO

CITY           SKY/WX    TMP DP  RH WIND       PRES   REMARKS
WASHINGTON NAT CLOUDY    30  21  69 W9        29.73S WCI  22
DULLES         CLOUDY    30  16  56 NW13      29.72R WCI  20
ANDREWS AFB    CLOUDY    29  22  74 W8        29.70S WCI  21
FT BELVOIR     MOCLDY    29  22  73 VRB5      29.73R
QUANTICO       CLOUDY    32  21  64 W3        29.76R
COLLEGE PARK*  CLOUDY    32  23  69 CALM      29.71S
LEESBURG*      CLOUDY    32  23  69 NW12G24   29.72R WCI  23
MANASSAS*      CLOUDY    30  21  69 CALM      29.74R
GAITHERSBURG*  CLOUDY    27  18  69 W10G16    29.73R WCI  17

$$

MDZ006>007-011-014-101100-
BALTIMORE METRO

CITY           SKY/WX    TMP DP  RH WIND       PRES   REMARKS
BWI AIRPORT    CLOUDY    28  23  81 W9        29.70R WCI  19
MD SCIENCE CTR   N/A     30  23  75 MISG      29.70R
MARTIN STATE   LGT SNOW  30  28  93 W6        29.71R
ANNAPOLIS      CLOUDY    30  24  78 W8        29.71R WCI  22
FORT MEADE*    CLOUDY    30  25  80 W6        29.73R

$$

MDZ012-015-019>023-101100-
MARYLAND EASTERN SHORE

CITY           SKY/WX    TMP DP  RH WIND       PRES   REMARKS
OCEAN CITY     CLOUDY    32  24  72 NW12      29.69R WCI  23
SALISBURY      LGT SNOW  30  25  81 W12       29.70R WCI  20
BAY BRIDGE AP* FLURRIES  30  27  86 W7G17     29.71S
CAMBRIDGE*     CLOUDY    30  27  86 W8        29.71S WCI  23
EASTON*        LGT SNOW  30  30  97 NW7       29.74

$$

MDZ017>025-101100-
SOUTHERN MARYLAND

CITY           SKY/WX    TMP DP  RH WIND       PRES   REMARKS
PATUXENT RIVER LGT SNOW  29  24  82 W12       29.74R WCI  19
ST INIGOES     LGT SNOW  30  26  85 W9        29.74R FOG     WCI  22
LEONARDTOWN*   CLOUDY    28  27  93 W6        29.75R

$$

MDZ003>005-101100-
NORTH CENTRAL MARYLAND

CITY           SKY/WX    TMP DP  RH WIND       PRES   REMARKS
FREDERICK*     CLOUDY    30  23  74 W9G16     29.73R WCI  22
HAGERSTOWN APT CLOUDY    28  18  66 W10       29.68R WCI  19
WESTMINSTER*   LGT SNOW  27  25  93 W7        29.66R

$$

MDZ501>502-101100-
WESTERN MARYLAND

CITY           SKY/WX    TMP DP  RH WIND       PRES   REMARKS
OAKLAND*       CLOUDY    14  14 100 W12G24    29.60R FOG     WCI   0
CUMBERLAND*    MOCLDY    30  18  59 W10       29.77R WCI  21

$$

VAZ025>031-101100-
SHENANDOAH VALLEY

CITY           SKY/WX    TMP DP  RH WIND       PRES   REMARKS
WINCHESTER*    CLOUDY    30  16  55 W15G24    29.71R WCI  19
FRONT ROYAL*   CLOUDY    28  14  54 SW9       29.71R WCI  20
LURAY*         FAIR      28  12  50 SW9G20    29.72R WCI  20
NEW MARKET*    FAIR      27  11  52 MISG      29.72R
STAUNTON*      FAIR      27  15  61 SW3       29.74R
WAYNESBORO*    FAIR      23  10  57 W5        29.72R

$$

WVZ021-048>050-054>055-101100-
EASTERN WEST VIRGINIA PANHANDLE

CITY           SKY/WX    TMP DP  RH WIND       PRES   REMARKS
MARTINSBURG    CLOUDY    28  16  60 W12       29.71R WCI  18
PETERSBURG*    CLOUDY    27  13  57 CALM      29.75R

$$

VAZ036>039-050-101100-
CENTRAL FOOTHILLS

CITY           SKY/WX    TMP DP  RH WIND       PRES   REMARKS
CHARLOTTESVILL CLOUDY    29  11  47 VRB3      29.73R
CULPEPER*      CLOUDY    26  21  83 CALM      29.74R
ORANGE*        CLOUDY    30  18  59 SW5       29.75R
GORDONSVILLE*  PTSUNNY   29  13  51 CALM      29.73R
WARRENTON*     CLOUDY    29  23  78 CALM      29.73R

$$

VAZ055>057-101100-
NORTH AND CENTRAL PIEDMONT

CITY           SKY/WX    TMP DP  RH WIND       PRES   REMARKS
FREDERICKSBRG* CLOUDY    30  27  89 SW3       29.74S
STAFFORD*      CLOUDY    30  20  68 CALM      29.78R

$$

NCZ024-NYZ072-PAZ021-071-VAZ022-071-101100-
OTHER REGIONAL OBSERVATIONS

CITY           SKY/WX    TMP DP  RH WIND       PRES   REMARKS
NEW YORK CITY  CLOUDY    33  27  78 W8        29.60S WCI  26
PHILADELPHIA   LGT SNOW  32  26  78 W12       29.65R WCI  23
PITTSBURGH     FLURRIES  23  16  74 W13G20    29.72R WCI  11
ROANOKE        MOCLDY    24  11  57 NW18G28   29.81R WCI  10
RICHMOND       FLURRIES  27  24  89 W8        29.76S WCI  19
RALEIGH        CLEAR     25  13  60 W6        29.85R

$$

ANZ530>537-101100-
MARINE OBSERVATIONS

STATION/POSITION TIME  TEMP    WIND        PRES
                       AIR SEA DIR/SP/G
                 (UTC) (F)     (DEG/KT/KT) (MB)
THOMAS PT LIGHT  0900   29 38  280/ 19/ 21 1006.2
BALT KEY BRIDGE  0900   29     260/ 13/ 15 1005.4R
COVE POINT       0900   29     330/  9/ 15 1006.8R
LEWISETTA        0900   32 41  310/ 13/ 16 1006.5R
SOLOMONS ISLAND  0900   30 40  300/ 11/ 17   N/A
PINEY POINT      0900          340/ 17/ 19   N/A

$$




USA.gov is the U.S. government's official web portal to all federal, state and local government web resources and services.